Hourly Weather Invercargill

Today, 29 September, Tuesday

Time Temperature Precipitation Wind Pressure Humidity
00:00 -2°C° 0.3 mm 8 mps 744 mmHg 80%
01:00 -2°C° 0.3 mm 8 mps 744 mmHg 80%
02:00 -3°C° 0.3 mm 9 mps 745 mmHg 80%
03:00 -3°C° 0.4 mm 9 mps 746 mmHg 77%
04:00 -3°C° 0.4 mm 9 mps 747 mmHg 74%
05:00 -3°C° 0 mm 9 mps 746 mmHg 74%
06:00 -3°C° 0.4 mm 9 mps 748 mmHg 74%
07:00 -3°C° 0.4 mm 9 mps 749 mmHg 74%
08:00 -3°C° 0.4 mm 9 mps 750 mmHg 75%
09:00 -3°C° 0.4 mm 9 mps 750 mmHg 76%
10:00 -1°C° 0.4 mm 9 mps 751 mmHg 77%
11:00 0°C° 0 mm 10 mps 751 mmHg 68%
12:00 0°C° 0.4 mm 9 mps 751 mmHg 72%
13:00 0°C° 0.4 mm 9 mps 751 mmHg 76%
14:00 0°C° 0.4 mm 8 mps 752 mmHg 80%
15:00 0°C° 0.3 mm 8 mps 752 mmHg 82%
16:00 0°C° 0.3 mm 7 mps 752 mmHg 83%
17:00 0°C° 0 mm 7 mps 752 mmHg 88%
18:00 0°C° 0.4 mm 7 mps 753 mmHg 88%
19:00 +1°C° 0.4 mm 6 mps 754 mmHg 88%
20:00 +1°C° 0.4 mm 5 mps 755 mmHg 89%
21:00 +1°C° 0.2 mm 5 mps 756 mmHg 88%
22:00 +1°C° 0.2 mm 5 mps 756 mmHg 87%
23:00 +1°C° 0 mm 6 mps 756 mmHg 88%

Tomorrow, 30 September, Wednesday

Time Temperature Precipitation Wind Pressure Humidity
00:00 +1°C° 0.1 mm 6 mps 756 mmHg 87%
01:00 +2°C° 0.1 mm 6 mps 757 mmHg 87%
02:00 +2°C° 0.1 mm 5 mps 757 mmHg 86%
03:00 +2°C° 0.1 mm 5 mps 757 mmHg 85%
04:00 +2°C° 0.1 mm 5 mps 758 mmHg 85%
05:00 +2°C° 0.1 mm 5 mps 758 mmHg 85%
06:00 +3°C° 0.1 mm 5 mps 759 mmHg 85%
07:00 +4°C° 0.1 mm 4 mps 759 mmHg 85%
08:00 +5°C° 0.1 mm 4 mps 760 mmHg 85%
09:00 +5°C° 0.4 mm 4 mps 760 mmHg 87%
10:00 +5°C° 0.4 mm 5 mps 760 mmHg 90%
11:00 +6°C° 0.4 mm 5 mps 760 mmHg 92%
12:00 +6°C° 0.6 mm 5 mps 760 mmHg 92%
13:00 +7°C° 0.6 mm 4 mps 760 mmHg 91%
14:00 +7°C° 0.6 mm 4 mps 760 mmHg 91%
15:00 +7°C° 0.2 mm 4 mps 760 mmHg 90%
16:00 +7°C° 0.2 mm 4 mps 761 mmHg 89%
17:00 +8°C° 0.2 mm 4 mps 761 mmHg 89%
18:00 +7°C° 0.1 mm 4 mps 761 mmHg 90%
19:00 +6°C° 0.1 mm 4 mps 762 mmHg 91%
20:00 +7°C° 0.1 mm 3 mps 763 mmHg 92%
21:00 +5°C° 0.1 mm 3 mps 763 mmHg 92%
22:00 +5°C° 0.1 mm 4 mps 763 mmHg 92%
23:00 +4°C° 0.1 mm 4 mps 763 mmHg 92%

Day after tomorrow, 1 October, Thursday

Time Temperature Precipitation Wind Pressure Humidity
00:00 +4°C° 0 mm 3 mps 763 mmHg 92%
01:00 +3°C° 0 mm 3 mps 763 mmHg 93%
02:00 +2°C° 0 mm 3 mps 763 mmHg 94%
03:00 +2°C° 0 mm 3 mps 763 mmHg 95%
04:00 +2°C° 0 mm 2 mps 764 mmHg 96%
05:00 +2°C° 0 mm 2 mps 764 mmHg 97%
06:00 +3°C° 0 mm 2 mps 764 mmHg 95%
07:00 +4°C° 0 mm 2 mps 764 mmHg 93%
08:00 +5°C° 0 mm 2 mps 764 mmHg 91%
09:00 +7°C° 0 mm 2 mps 764 mmHg 80%
10:00 +9°C° 0 mm 2 mps 764 mmHg 69%
11:00 +13°C° 0 mm 2 mps 764 mmHg 58%
12:00 +13°C° 0 mm 2 mps 764 mmHg 56%
13:00 +14°C° 0 mm 2 mps 763 mmHg 55%
14:00 +15°C° 0 mm 1 mps 763 mmHg 53%
15:00 +14°C° 0 mm 2 mps 763 mmHg 57%
16:00 +13°C° 0 mm 2 mps 763 mmHg 61%
17:00 +13°C° 0 mm 2 mps 763 mmHg 64%
18:00 +10°C° 0 mm 2 mps 763 mmHg 71%
19:00 +9°C° 0 mm 3 mps 762 mmHg 77%
20:00 +7°C° 0 mm 3 mps 762 mmHg 83%
21:00 +6°C° 0 mm 4 mps 762 mmHg 83%
22:00 +5°C° 0 mm 4 mps 762 mmHg 83%
23:00 +5°C° 0 mm 4 mps 761 mmHg 82%

2 October, Friday

Time Temperature Precipitation Wind Pressure Humidity
00:00 +5°C° 0 mm 4 mps 761 mmHg 80%
01:00 +5°C° 0 mm 4 mps 760 mmHg 78%
02:00 +5°C° 0 mm 4 mps 759 mmHg 76%
03:00 +5°C° 0 mm 5 mps 758 mmHg 75%
04:00 +5°C° 0 mm 5 mps 758 mmHg 74%
05:00 +6°C° 0 mm 5 mps 757 mmHg 74%
06:00 +6°C° 0.4 mm 5 mps 757 mmHg 77%
07:00 +7°C° 0.4 mm 4 mps 757 mmHg 81%
08:00 +8°C° 0.4 mm 4 mps 757 mmHg 84%
09:00 +10°C° 0.2 mm 3 mps 758 mmHg 85%
10:00 +11°C° 0.2 mm 3 mps 758 mmHg 85%
11:00 +12°C° 0.2 mm 3 mps 759 mmHg 85%
12:00 +13°C° 0.2 mm 3 mps 758 mmHg 74%
13:00 +14°C° 0.2 mm 3 mps 758 mmHg 63%
14:00 +16°C° 0.2 mm 3 mps 758 mmHg 52%
15:00 +14°C° 0 mm 3 mps 757 mmHg 54%
16:00 +14°C° 0 mm 3 mps 757 mmHg 55%
17:00 +13°C° 0 mm 3 mps 757 mmHg 57%
18:00 +12°C° 0 mm 4 mps 757 mmHg 59%
19:00 +11°C° 0 mm 4 mps 757 mmHg 62%
20:00 +9°C° 0 mm 5 mps 757 mmHg 65%
21:00 +9°C° 0.1 mm 5 mps 757 mmHg 68%
22:00 +9°C° 0.1 mm 6 mps 756 mmHg 72%
23:00 +9°C° 0.1 mm 6 mps 756 mmHg 76%

3 October, Saturday

Time Temperature Precipitation Wind Pressure Humidity
00:00 +9°C° 0.3 mm 6 mps 755 mmHg 79%
01:00 +9°C° 0.3 mm 6 mps 755 mmHg 82%
02:00 +10°C° 0.3 mm 5 mps 755 mmHg 86%
03:00 +10°C° 2.5 mm 6 mps 755 mmHg 88%
04:00 +9°C° 2.5 mm 6 mps 756 mmHg 90%
05:00 +9°C° 2.5 mm 6 mps 756 mmHg 93%
06:00 +10°C° 0.1 mm 6 mps 757 mmHg 90%
07:00 +11°C° 0.1 mm 6 mps 757 mmHg 87%
08:00 +11°C° 0.1 mm 6 mps 758 mmHg 85%
09:00 +14°C° 0.2 mm 6 mps 757 mmHg 76%
10:00 +15°C° 0.2 mm 6 mps 757 mmHg 67%
11:00 +16°C° 0.2 mm 7 mps 757 mmHg 59%
12:00 +16°C° 0 mm 7 mps 756 mmHg 59%
13:00 +16°C° 0 mm 6 mps 755 mmHg 59%
14:00 +16°C° 0 mm 6 mps 754 mmHg 60%
15:00 +16°C° 0.1 mm 6 mps 754 mmHg 62%
16:00 +16°C° 0.1 mm 7 mps 754 mmHg 64%
17:00 +16°C° 0.1 mm 7 mps 753 mmHg 66%
18:00 +15°C° 2.3 mm 7 mps 753 mmHg 76%
19:00 +14°C° 2.3 mm 7 mps 754 mmHg 86%
20:00 +12°C° 2.3 mm 7 mps 754 mmHg 96%
21:00 +11°C° 3 mm 7 mps 754 mmHg 96%
22:00 +11°C° 3 mm 8 mps 754 mmHg 96%
23:00 +11°C° 3 mm 8 mps 754 mmHg 96%

4 October, Sunday

Time Temperature Precipitation Wind Pressure Humidity
00:00 +10°C° 2.6 mm 8 mps 755 mmHg 96%
01:00 +9°C° 2.6 mm 7 mps 756 mmHg 95%
02:00 +8°C° 2.6 mm 7 mps 756 mmHg 94%
03:00 +8°C° 2.8 mm 6 mps 756 mmHg 95%
04:00 +7°C° 2.8 mm 6 mps 757 mmHg 95%
05:00 +7°C° 2.8 mm 5 mps 757 mmHg 96%
06:00 +7°C° 3.7 mm 5 mps 757 mmHg 95%
07:00 +6°C° 3.7 mm 5 mps 758 mmHg 95%
08:00 +6°C° 3.7 mm 5 mps 758 mmHg 95%
09:00 +6°C° 1.9 mm 5 mps 759 mmHg 95%
10:00 +6°C° 1.9 mm 5 mps 759 mmHg 95%
11:00 +6°C° 1.9 mm 5 mps 759 mmHg 95%
12:00 +7°C° 0.4 mm 5 mps 760 mmHg 94%
13:00 +7°C° 0.4 mm 5 mps 760 mmHg 93%
14:00 +7°C° 0.4 mm 5 mps 760 mmHg 91%
15:00 +8°C° 0 mm 5 mps 760 mmHg 89%
16:00 +8°C° 0 mm 5 mps 761 mmHg 87%
17:00 +8°C° 0 mm 5 mps 761 mmHg 84%
18:00 +8°C° 0.1 mm 5 mps 762 mmHg 85%
19:00 +7°C° 0.1 mm 4 mps 763 mmHg 86%
20:00 +6°C° 0.1 mm 4 mps 764 mmHg 87%
21:00 +7°C° 0 mm 3 mps 764 mmHg 88%
22:00 +7°C° 0 mm 3 mps 764 mmHg 89%
23:00 +7°C° 0 mm 3 mps 764 mmHg 89%
Show more